EW1669 Weather Reports


Display with metric or nautical units.
time (UTC)temp
F
wind
direction
speed
MPH
gust
MPH
rain 1hr
in
rain 24hr
in
rain mn
in
humidity
%
barometer
mb
20260510095341 62 14 0.0 8.0 0.00 0.00 0.00 70 1014.3
20260510094756 62 349 6.0 8.0 0.00 0.00 0.00 68 1014.3
20260510094156 63 4 0.0 4.0 0.00 0.00 0.00 67 1013.9
20260510093553 63 21 0.0 10.0 0.00 0.00 0.00 65 1013.9
20260510093445 64 4 7.0 10.0 0.00 0.00 0.00 63 1013.9
20260510092402 64 6 4.0 7.0 0.00 0.00 0.00 61 1013.9
20260510092036 64 13 0.0 3.0 0.00 0.00 0.00 59 1013.9
20260510091156 64 21 1.0 8.0 0.00 0.00 0.00 56 1013.9
20260510090600 65 24 0.0 2.0 0.00 0.00 0.00 53 1013.6
20260510090219 65 15 0.0 6.0 0.00 0.00 0.00 49 1013.6
20260510085359 66 51 5.0 6.0 0.00 0.00 0.00 47 1013.9
20260510084756 66 7 1.0 8.0 0.00 0.00 0.00 44 1013.9
20260510084155 66 343 6.0 8.0 0.00 0.00 0.00 42 1013.6
20260510083820 67 5 0.0 6.0 0.00 0.00 0.00 38 1013.6
20260510083035 67 5 5.0 9.0 0.00 0.00 0.00 37 1013.3
20260510082450 67 72 0.0 4.0 0.00 0.00 0.00 35 1013.3
20260510081913 67 17 0.0 0.0 0.00 0.00 0.00 33 1013.3
20260510081248 67 349 0.0 1.0 0.00 0.00 0.00 32 1013.6
20260510080907 68 4 0.0 4.0 0.00 0.00 0.00 31 1013.6
20260510080058 68 346 0.0 3.0 0.00 0.00 0.00 30 1013.6
20260510075454 69 354 0.0 1.0 0.00 0.00 0.00 29 1013.3
20260510075124 70 41 0.0 3.0 0.00 0.00 0.00 28 1013.3
20260510074245 71 14 2.0 8.0 0.00 0.00 0.00 27 1013.3
20260510073914 71 14 0.0 11.0 0.00 0.00 0.00 26 1013.6
20260510073111 72 5 0.0 9.0 0.00 0.00 0.00 24 1013.6
20260510072445 72 17 4.0 8.0 0.00 0.00 0.00 24 1013.3
20260510071856 72 12 0.0 1.0 0.00 0.00 0.00 23 1013.9
20260510071256 70 4 0.0 2.0 0.00 0.00 0.00 23 1013.9
20260510070649 70 42 0.0 3.0 0.00 0.00 0.00 24 1013.6
20260510070051 70 357 0.0 1.0 0.00 0.00 0.00 23 1013.3
20260510065458 70 30 0.0 0.0 0.00 0.00 0.00 23 1013.3
20260510065116 71 10 0.0 2.0 0.00 0.00 0.00 23 1013.6
20260510064242 73 355 0.0 0.0 0.00 0.00 0.00 21 1013.3
20260510063928 72 353 0.0 0.0 0.00 0.00 0.00 21 1013.3
20260510063058 74 31 0.0 0.0 0.00 0.00 0.00 21 1013.3
20260510062500 75 161 0.0 0.0 0.00 0.00 0.00 19 1012.9
20260510061907 75 149 0.0 0.0 0.00 0.00 0.00 19 1012.6
20260510061254 74 154 0.0 0.0 0.00 0.00 0.00 20 1012.6
20260510060655 74 144 0.0 0.0 0.00 0.00 0.00 20 1012.6
20260510060113 74 127 0.0 0.0 0.00 0.00 0.00 21 1012.6
20260510055455 74 134 0.0 0.0 0.00 0.00 0.00 20 1012.6
20260510054903 74 3 0.0 0.0 0.00 0.00 0.00 20 1012.3
20260510054355 74 3 0.0 0.0 0.00 0.00 0.00 20 1012.6
20260510054038 75 3 0.0 0.0 0.00 0.00 0.00 20 1012.6
20260510053249 74 3 0.0 0.0 0.00 0.00 0.00 20 1012.6
20260510052701 76 3 0.0 0.0 0.00 0.00 0.00 19 1012.6
20260510052113 76 3 0.0 0.0 0.00 0.00 0.00 20 1012.6
20260510051716 78 3 0.0 0.0 0.00 0.00 0.00 18 1012.9
20260510050853 79 4 0.0 1.0 0.00 0.00 0.00 18 1012.6
20260510050252 81 3 0.0 9.0 0.00 0.00 0.00 16 1012.9
20260510045650 81 78 0.0 18.0 0.00 0.00 0.00 15 1012.9
20260510045053 79 66 1.0 13.0 0.00 0.00 0.00 17 1012.6
20260510044445 76 357 0.0 7.0 0.00 0.00 0.00 18 1012.6
20260510043857 72 350 2.0 4.0 0.00 0.00 0.00 20 1012.9
20260510043254 70 8 0.0 0.0 0.00 0.00 0.00 24 1012.9
20260510042657 71 204 0.0 0.0 0.00 0.00 0.00 24 1012.6
20260510042054 71 204 0.0 0.0 0.00 0.00 0.00 23 1012.6
20260510041506 72 204 0.0 0.0 0.00 0.00 0.00 23 1012.3
20260510040852 72 204 0.0 0.0 0.00 0.00 0.00 21 1011.9
20260510040252 72 204 0.0 0.0 0.00 0.00 0.00 21 1012.3
20260510035919 73 204 0.0 0.0 0.00 0.00 0.00 23 1012.3
20260510035111 73 204 0.0 0.0 0.00 0.00 0.00 21 1012.3
20260510034511 72 204 0.0 0.0 0.00 0.00 0.00 22 1012.3
20260510034113 72 213 0.0 0.0 0.00 0.00 0.00 23 1012.3
20260510033250 71 215 0.0 0.0 0.00 0.00 0.00 22 1012.3
20260510032658 72 215 0.0 0.0 0.00 0.00 0.00 22 1012.3
20260510032315 73 215 0.0 0.0 0.00 0.00 0.00 21 1012.3
20260510031457 74 215 0.0 0.0 0.00 0.00 0.00 20 1011.9
20260510030852 75 209 0.0 0.0 0.00 0.00 0.00 20 1012.3
20260510030254 76 203 0.0 0.0 0.00 0.00 0.00 19 1011.9
20260510025654 76 203 0.0 0.0 0.00 0.00 0.00 19 1011.9
20260510025312 78 203 0.0 0.0 0.00 0.00 0.00 18 1011.6
20260510024511 77 203 0.0 0.0 0.00 0.00 0.00 18 1011.6
20260510023853 78 151 0.0 0.0 0.00 0.00 0.00 17 1011.6
20260510023516 78 168 0.0 0.0 0.00 0.00 0.00 17 1011.2
20260510022700 79 142 0.0 0.0 0.00 0.00 0.00 17 1011.2
20260510022051 79 205 0.0 0.0 0.00 0.00 0.00 16 1011.2
20260510021714 79 198 0.0 0.0 0.00 0.00 0.00 16 1011.2
20260510020856 80 186 0.0 0.0 0.00 0.00 0.00 16 1011.2
20260510020519 80 204 0.0 0.0 0.00 0.00 0.00 15 1011.2
20260510015657 80 202 0.0 0.0 0.00 0.00 0.00 15 1010.9
20260510015059 81 192 0.0 0.0 0.00 0.00 0.00 15 1011.2
20260510014452 82 193 0.0 0.0 0.00 0.00 0.00 15 1011.2
20260510013851 83 202 0.0 0.0 0.00 0.00 0.00 13 1010.6
20260510013254 83 191 0.0 2.0 0.00 0.00 0.00 13 1010.9
20260510012656 84 199 1.0 2.0 0.00 0.00 0.00 13 1010.6
20260510012112 84 354 0.0 0.0 0.00 0.00 0.00 13 1010.9
20260510011712 85 214 0.0 8.0 0.00 0.00 0.00 13 1010.9
20260510010847 83 196 0.0 0.0 0.00 0.00 0.00 15 1011.2
20260510010252 83 208 0.0 0.0 0.00 0.00 0.00 15 1011.2
20260510010129 84 207 0.0 8.0 0.00 0.00 0.00 14 1010.9
20260510005053 84 203 1.0 6.0 0.00 0.00 0.00 14 1010.9
20260510004714 84 192 2.0 6.0 0.00 0.00 0.00 14 1011.2
20260510003856 85 188 0.0 1.0 0.00 0.00 0.00 14 1010.9
20260510003245 85 216 0.0 1.0 0.00 0.00 0.00 13 1011.2
20260510002655 86 219 0.0 0.0 0.00 0.00 0.00 13 1011.2
20260510002102 86 198 0.0 0.0 0.00 0.00 0.00 14 1011.2
20260510001451 86 219 0.0 10.0 0.00 0.00 0.00 14 1010.9
20260510000855 86 182 6.0 10.0 0.00 0.00 0.00 13 1011.2
20260510000250 86 190 2.0 10.0 0.00 0.00 0.00 14 1011.2
20260509235648 86 226 0.0 6.0 0.00 0.00 0.00 14 1010.9
20260509235051 87 194 1.0 3.0 0.00 0.00 0.00 13 1011.2
20260509234955 87 193 0.0 0.0 0.00 0.00 0.00 14 1010.9
20260509233854 87 183 0.0 0.0 0.00 0.00 0.00 15 1010.9
20260509233306 87 236 0.0 7.0 0.00 0.00 0.00 13 1011.2
20260509232701 87 227 3.0 7.0 0.00 0.00 0.00 12 1010.9
20260509232055 87 133 0.0 7.0 0.00 0.00 0.00 13 1010.9
20260509231713 88 181 2.0 14.0 0.00 0.00 0.00 13 1010.9
20260509231006 89 196 0.0 7.0 0.00 0.00 0.00 12 1011.2
20260509230852 90 229 7.0 14.0 0.00 0.00 0.00 12 1011.2
20260509225653 91 199 0.0 10.0 0.00 0.00 0.00 12 1010.9
20260509225056 92 220 6.0 10.0 0.00 0.00 0.00 11 1011.2
20260509224721 92 209 0.0 2.0 0.00 0.00 0.00 11 1011.2
20260509224056 91 212 0.0 2.0 0.00 0.00 0.00 11 1010.9
20260509223302 92 201 1.0 2.0 0.00 0.00 0.00 11 1011.2
20260509222653 91 212 0.0 1.0 0.00 0.00 0.00 11 1011.2
20260509222052 90 201 0.0 8.0 0.00 0.00 0.00 11 1011.2
20260509221510 89 197 0.0 1.0 0.00 0.00 0.00 11 1011.2
20260509220855 90 227 0.0 0.0 0.00 0.00 0.00 11 1011.2
20260509220225 90 242 0.0 2.0 0.00 0.00 0.00 12 1011.2
20260509215653 89 339 0.0 0.0 0.00 0.00 0.00 12 1011.2
20260509215306 88 194 0.0 0.0 0.00 0.00 0.00 13 1011.6
20260509214452 89 128 0.0 0.0 0.00 0.00 0.00 12 1011.9
20260509213844 89 148 0.0 0.0 0.00 0.00 0.00 11 1011.6
20260509213252 89 236 0.0 3.0 0.00 0.00 0.00 11 1011.9
20260509212650 91 177 1.0 3.0 0.00 0.00 0.00 11 1011.6
20260509212049 91 162 0.0 0.0 0.00 0.00 0.00 11 1011.9
20260509211452 93 240 0.0 0.0 0.00 0.00 0.00 10 1012.3
20260509210850 93 197 0.0 0.0 0.00 0.00 0.00 10 1012.3
20260509210329 93 240 0.0 1.0 0.00 0.00 0.00 10 1012.3
20260509205804 93 350 0.0 11.0 0.00 0.00 0.00 10 1012.6
20260509205516 93 263 4.0 11.0 0.00 0.00 0.00 10 1012.3
20260509204654 92 231 0.0 2.0 0.00 0.00 0.00 10 1012.3
20260509204051 92 19 0.0 3.0 0.00 0.00 0.00 11 1012.3
20260509203453 92 325 1.0 3.0 0.00 0.00 0.00 10 1012.9
20260509202852 91 201 0.0 9.0 0.00 0.00 0.00 12 1012.6
20260509202254 92 246 3.0 9.0 0.00 0.00 0.00 11 1012.9
20260509201658 93 321 0.0 0.0 0.00 0.00 0.00 12 1013.3
20260509201032 92 247 0.0 0.0 0.00 0.00 0.00 11 1012.9
20260509200451 91 357 0.0 9.0 0.00 0.00 0.00 11 1013.3
20260509195853 93 344 0.0 0.0 0.00 0.00 0.00 11 1012.9
20260509195247 92 165 0.0 1.0 0.00 0.00 0.00 11 1012.9
20260509194658 90 241 0.0 1.0 0.00 0.00 0.00 12 1013.3
20260509194052 91 316 0.0 0.0 0.00 0.00 0.00 11 1013.3
20260509193443 91 271 0.0 0.0 0.00 0.00 0.00 12 1013.3
20260509192854 90 12 0.0 0.0 0.00 0.00 0.00 12 1013.6
20260509192307 91 226 0.0 0.0 0.00 0.00 0.00 14 1013.6
20260509192011 90 284 0.0 0.0 0.00 0.00 0.00 13 1013.6
20260509191150 91 208 0.0 0.0 0.00 0.00 0.00 13 1013.6
20260509190601 91 216 0.0 0.0 0.00 0.00 0.00 13 1013.6
20260509185954 90 139 0.0 0.0 0.00 0.00 0.00 14 1013.6
20260509185346 90 185 0.0 0.0 0.00 0.00 0.00 14 1013.9
20260509184753 90 168 0.0 3.0 0.00 0.00 0.00 13 1014.3
20260509184204 89 190 1.0 7.0 0.00 0.00 0.00 14 1013.9
20260509183656 90 216 2.0 7.0 0.00 0.00 0.00 14 1014.3
20260509183052 89 185 0.0 0.0 0.00 0.00 0.00 16 1014.3
20260509182719 89 212 0.0 0.0 0.00 0.00 0.00 14 1014.6
20260509181912 87 192 0.0 6.0 0.00 0.00 0.00 15 1014.6
20260509181255 87 215 0.0 6.0 0.00 0.00 0.00 15 1014.6
20260509180652 87 205 0.0 4.0 0.00 0.00 0.00 14 1014.6
20260509180058 87 172 0.0 2.0 0.00 0.00 0.00 15 1014.6
20260509175452 88 229 0.0 0.0 0.00 0.00 0.00 15 1015.0
20260509174932 87 150 0.0 2.0 0.00 0.00 0.00 17 1015.0
20260509174612 86 191 0.0 3.0 0.00 0.00 0.00 17 1015.0
20260509173803 86 182 2.0 3.0 0.00 0.00 0.00 19 1015.0
20260509173245 85 348 0.0 2.0 0.00 0.00 0.00 21 1015.0
20260509172651 85 185 0.0 0.0 0.00 0.00 0.00 21 1015.0
20260509172056 84 179 0.0 0.0 0.00 0.00 0.00 21 1015.3
20260509171457 83 200 0.0 14.0 0.00 0.00 0.00 21 1015.3
20260509170847 83 206 6.0 14.0 0.00 0.00 0.00 21 1015.3
20260509170516 82 229 0.0 9.0 0.00 0.00 0.00 23 1015.0
20260509165919 82 200 2.0 6.0 0.00 0.00 0.00 22 1015.6
20260509165055 81 186 0.0 4.0 0.00 0.00 0.00 23 1015.6
20260509164457 81 206 2.0 4.0 0.00 0.00 0.00 23 1015.6
20260509164104 80 182 0.0 4.0 0.00 0.00 0.00 24 1015.3
20260509163256 81 200 0.0 4.0 0.00 0.00 0.00 23 1015.3
20260509162708 79 187 2.0 7.0 0.00 0.00 0.00 24 1015.6
20260509162106 78 200 0.0 11.0 0.00 0.00 0.00 25 1015.6
20260509161553 78 192 0.0 7.0 0.00 0.00 0.00 24 1015.3
20260509160947 77 203 3.0 3.0 0.00 0.00 0.00 26 1015.3
20260509160419 76 136 0.0 6.0 0.00 0.00 0.00 26 1015.0
20260509155804 75 204 2.0 11.0 0.00 0.00 0.00 27 1015.0
20260509155151 75 228 2.0 10.0 0.00 0.00 0.00 27 1015.3
20260509154551 75 142 0.0 2.0 0.00 0.00 0.00 27 1015.0
20260509154004 75 185 0.0 2.0 0.00 0.00 0.00 29 1015.3
20260509153350 74 159 0.0 9.0 0.00 0.00 0.00 29 1015.3
20260509152755 72 173 0.0 9.0 0.00 0.00 0.00 31 1015.0
20260509152634 71 198 1.0 9.0 0.00 0.00 0.00 32 1015.3
20260509151552 71 149 0.0 13.0 0.00 0.00 0.00 33 1015.0
20260509150957 71 159 3.0 13.0 0.00 0.00 0.00 33 1015.3
20260509150619 70 144 2.0 9.0 0.00 0.00 0.00 33 1015.0
20260509150029 69 130 4.0 9.0 0.00 0.00 0.00 35 1015.3
20260509145203 69 151 3.0 13.0 0.00 0.00 0.00 35 1015.3
20260509144616 69 131 6.0 9.0 0.00 0.00 0.00 36 1015.3
20260509144008 67 158 4.0 9.0 0.00 0.00 0.00 37 1015.3
20260509143609 67 128 7.0 9.0 0.00 0.00 0.00 38 1015.6
20260509142913 66 136 4.0 7.0 0.00 0.00 0.00 39 1015.6
20260509142753 67 160 1.0 9.0 0.00 0.00 0.00 39 1015.3
20260509141557 66 159 2.0 6.0 0.00 0.00 0.00 40 1015.6
20260509140951 65 131 3.0 4.0 0.00 0.00 0.00 41 1015.6
20260509140351 65 130 0.0 4.0 0.00 0.00 0.00 42 1015.6
20260509140108 65 145 0.0 3.0 0.00 0.00 0.00 43 1015.6
20260509135249 64 142 1.0 3.0 0.00 0.00 0.00 43 1015.6
20260509134656 64 140 0.0 2.0 0.00 0.00 0.00 44 1015.6
20260509134152 63 147 0.0 0.0 0.00 0.00 0.00 44 1016.0
20260509133746 62 107 0.0 0.0 0.00 0.00 0.00 42 1015.6
20260509133633 63 130 0.0 0.0 0.00 0.00 0.00 43 1015.6
20260509132456 62 107 0.0 0.0 0.00 0.00 0.00 41 1015.6
20260509131846 61 107 0.0 0.0 0.00 0.00 0.00 43 1015.6
20260509131257 60 107 0.0 0.0 0.00 0.00 0.00 43 1015.3
20260509130652 61 107 0.0 0.0 0.00 0.00 0.00 42 1015.3
20260509130534 59 107 0.0 0.0 0.00 0.00 0.00 44 1015.3
20260509125504 57 106 0.0 0.0 0.00 0.00 0.00 46 1015.3
20260509124856 56 106 0.0 0.0 0.00 0.00 0.00 48 1015.3
20260509124257 54 106 0.0 0.0 0.00 0.00 0.00 49 1015.6
20260509123718 53 106 0.0 0.0 0.00 0.00 0.00 50 1015.0
20260509123153 51 105 0.0 0.0 0.00 0.00 0.00 55 1015.0
20260509123052 51 105 0.0 0.0 0.00 0.00 0.00 53 1015.3
20260509121912 50 105 0.0 0.0 0.00 0.00 0.00 55 1015.0
20260509121251 50 106 0.0 0.0 0.00 0.00 0.00 56 1015.0
20260509120654 50 106 0.0 0.0 0.00 0.00 0.00 56 1015.3
20260509120233 50 106 0.0 0.0 0.00 0.00 0.00 54 1015.0
20260509120112 50 106 0.0 0.0 0.00 0.00 0.00 55 1015.3
20260509114852 51 106 0.0 0.0 0.00 0.00 0.00 53 1015.0
20260509114306 51 106 0.0 0.0 0.00 0.00 0.00 52 1015.0
20260509113652 52 106 0.0 0.0 0.00 0.00 0.00 52 1015.0
20260509113051 53 107 0.0 0.0 0.00 0.00 0.00 52 1015.0
20260509112454 54 107 0.0 0.0 0.00 0.00 0.00 50 1015.0
20260509112119 54 107 0.0 0.0 0.00 0.00 0.00 49 1015.3
20260509111250 55 107 0.0 0.0 0.00 0.00 0.00 48 1015.0
20260509110717 56 107 0.0 0.0 0.00 0.00 0.00 46 1015.0
20260509110055 56 108 0.0 0.0 0.00 0.00 0.00 46 1015.0
20260509105456 56 107 0.0 0.0 0.00 0.00 0.00 46 1015.0
20260509104858 57 108 0.0 0.0 0.00 0.00 0.00 45 1015.0
20260509104313 57 107 0.0 0.0 0.00 0.00 0.00 43 1015.0
20260509103653 58 106 0.0 0.0 0.00 0.00 0.00 42 1015.0
20260509103056 58 116 0.0 0.0 0.00 0.00 0.00 42 1015.3
20260509102454 58 124 0.0 0.0 0.00 0.00 0.00 42 1015.0
20260509101902 59 133 0.0 1.0 0.00 0.00 0.00 41 1015.6
20260509101251 59 128 0.0 0.0 0.00 0.00 0.00 42 1015.3
20260509100900 59 124 0.0 2.0 0.00 0.00 0.00 42 1015.6
20260509100050 59 123 1.0 2.0 0.00 0.00 0.00 42 1015.3